SCP
0 0 0 0 0 0 0 0 0 0 0 0 0 0 0 0 0 0 0 0 0 0 0 0 0 0 0 0 0 0 0 0
0 0 0 0 0 0 0 0 0 0 0 0 0 0 0 0 0 0 0 0 0 0 0 0 0 0 0 0 0 0 0 0
0 0 0 0 0 0 0 0 0 0 0 0 0 0 0 0 0 0 0 0 0 0 0 0 0 0 0 0 0 0 0 0
0 0 0 0 0 0 0 0 0 0 0 0 0 0 0 0 0 0 0 0 0 0 0 0 0 0 0 0 0 0 0 0
0 0 0 0 0 0 0 0 0 0 0 0 0 0 0 0 0 0 0 0 0 0 0 0 0 0 0 0 0 0 0 0
0 0 0 0 0 0 -0 -0 -0 -0 -0 0 0 0 0 0 0 0 0 0 0 0 0 0 0 0 0 0 0 0 0 0
0 0 -0 -0 -0 -0 -0 -0 -0 0 0 0 0 0 0 0 0 0 0 0 0 0 0 0 0 0 0 0 0 0 0 0
0 -0 -0 -0 -0 -0 -0 -0 -0 0 0 0 0 0 0 0 0 0 0 0 0 0 0 0 0 0 0 0 0 0 0 0
0 0 -0 0 -0 -0 -0 -0 -0 0 0 0 0 0 0 0 0 0 0 0 0 0 0 0 -0 -0 -0 -0 -0 -0 -0 -0
0 -0 -0 0 0 0 0 -0 -0 0 -0 -0 0 0 0 0 0 0 0 0 0 0 0 0 0 -0 -0 -0 -0 -0 0 -0
0 0 0 0 -0 0 -0 -0 -0 0 0 -0 -0 -0 0 0 0 0 0 0 0 0 0 0 0 0 0 -0 0 -0 -0 0
0 0 0 -0 -0 -0 0 0 0 0 -0 0 0 0 0 0 0 0 0 0 0 0 0 0 0 0 0 0 -0 -0 -0 -0
0 0 0 0 0 0 0 0 0 0 0 0 0 0 0 0 0 0 0 0 0 0 0 0 0 -0 0 0 0 -0 0 0
0 0 0 0 0 0 0 0 0 0 0 0 0 0 0 0 0 0 0 0 0 0 0 0 -0 -0 -0 -0 -0 -0 0 -0
0 0 0 0 0 0 0 0 0 0 0 0 0 0 0 0 0 0 0 0 -0 -0 -0 0 0 0 0 0 0 0 -0 0
0 0 0 0 0 0 0 0 0 0 0 0 0 0 0 0 0 -0 -0 -0 0 0 -0 0 0 0 0 -0 0 0 0 0
0 0 0 0 0 0 0 0 0 0 0 0 0 0 0 0 0 0 -0 -0 -0 0 0 0 0 0 0 0 0 0 0 0
0 0 0 0 0 0 0 0 0 0 0 0 0 0 0 0 0 0 0 0 0 0 0 0 0 0 0 0 0 0 0 0
0 0 0 0 0 0 0 0 0 0 0 0 0 0 0 0 0 0 0 0 0 0 0 0 0 -0 -0 -0 -0 -0 -0 -0
0 0 0 0 0 0 0 0 0 0 0 0 0 0 0 0 0 0 0 0 0 -0 -0 -0 -0 -0 -0 -0 -0 -0 -0 -0
Wind_Speed_500mb
58 56 56 55 50 46 50 49 41 40 40 40 40 40 42 44 44 43 44 45 45 43 42 42 42 42 40 42 39 36 39 53
63 67 66 60 57 51 39 46 45 44 46 49 49 48 47 47 46 43 42 43 44 43 40 40 41 39 38 41 35 43 46 45
73 81 74 66 58 54 63 70 61 56 54 54 54 53 49 47 46 42 43 44 45 41 36 39 37 39 35 34 35 38 36 25
72 62 64 51 41 48 50 57 59 57 58 62 60 55 51 49 45 46 49 49 44 31 37 34 37 32 33 33 27 28 22 13
81 64 65 75 81 69 65 63 62 64 62 59 53 48 47 50 50 55 60 49 40 30 34 27 31 27 26 20 18 12 11 16
81 92 76 61 62 67 74 71 70 66 61 57 53 49 51 50 42 40 35 33 29 28 26 26 21 19 15 8 8 20 29 34
75 91 90 86 79 77 70 64 58 54 52 47 40 37 34 28 29 28 29 25 23 28 23 19 12 10 8 10 20 32 41 46
71 73 71 69 63 62 63 57 53 49 42 38 32 30 26 34 21 16 16 22 24 21 18 11 10 12 17 18 33 41 48 45
68 66 64 63 58 54 55 53 53 47 38 33 29 22 21 25 20 15 21 14 15 19 17 15 16 19 28 42 55 51 41 49
66 63 62 57 46 39 42 44 39 30 26 24 20 20 15 13 20 15 10 14 23 24 23 28 25 26 35 44 46 45 48 52
60 54 52 42 33 27 27 33 18 19 20 19 18 18 14 15 12 3 20 24 29 36 37 44 50 46 45 48 55 48 46 53
55 47 45 42 28 19 21 23 26 25 23 21 22 23 22 20 14 20 26 31 42 47 56 63 61 59 62 60 53 50 48 47
46 46 39 33 31 33 28 27 29 33 33 35 32 30 28 33 35 34 35 42 48 59 62 64 63 59 54 54 45 33 33 37
44 41 40 38 37 35 35 35 38 40 42 43 42 44 47 50 55 58 50 54 61 63 65 63 58 54 48 39 38 41 43 43
38 37 38 41 41 40 37 39 44 51 54 54 57 59 63 70 81 88 84 69 66 63 58 56 51 45 45 49 49 50 48 45
33 36 37 39 38 40 36 40 47 54 56 58 64 70 81 91 87 77 70 68 68 60 49 49 50 52 53 53 52 44 43 40
35 40 43 41 43 40 36 42 49 55 60 66 78 85 82 74 67 64 58 56 58 58 56 56 52 52 54 52 43 41 42 41
39 43 42 41 44 41 40 49 57 62 73 79 77 79 80 76 67 57 55 55 53 51 50 45 40 40 41 43 42 41 41 39
35 36 38 37 39 41 48 51 66 74 74 74 70 67 76 63 52 51 50 49 48 43 42 42 42 40 42 42 41 40 39 38
39 41 38 36 37 43 50 51 63 68 72 76 79 71 50 48 50 50 50 51 50 49 46 47 46 41 42 42 41 41 40 38
Wind_Direction_500mb
309 310 308 299 294 293 283 272 268 269 271 276 287 291 289 287 290 290 295 296 296 296 293 292 292 294 293 288 287 286 287 296
307 307 305 297 287 285 282 282 273 276 278 280 285 289 290 286 284 284 293 294 294 292 289 290 291 294 290 286 288 289 296 304
303 303 302 298 288 285 278 271 289 286 284 281 284 288 287 283 277 277 286 292 289 282 290 290 292 288 284 284 288 293 298 271
311 304 303 299 289 294 290 287 284 285 285 284 286 283 281 277 271 272 285 287 284 282 286 289 289 285 287 288 290 287 264 253
307 300 295 291 296 294 289 287 285 284 282 281 281 277 274 272 274 279 279 273 272 275 285 283 279 287 290 298 288 247 207 145
294 298 297 288 293 286 285 284 283 279 279 278 274 272 275 277 275 274 270 264 263 282 265 270 276 287 286 277 204 184 159 141
304 302 297 293 288 285 282 280 277 275 275 274 273 269 263 270 266 267 259 265 270 258 262 251 264 264 247 189 180 155 134 113
304 301 297 293 291 287 283 278 277 273 271 267 264 263 264 252 250 251 286 247 246 254 222 206 208 193 177 179 154 137 123 106
314 313 309 307 304 295 284 278 271 267 264 258 252 249 240 250 244 250 265 271 225 187 169 150 157 158 149 148 135 121 120 116
329 324 321 320 316 300 285 278 276 264 241 236 228 220 213 209 223 250 258 207 172 148 143 131 121 128 142 146 131 122 114 112
339 338 336 337 341 328 310 299 236 199 185 184 188 189 183 181 181 136 158 158 143 133 127 119 117 118 118 116 112 112 112 109
348 352 359 6 4 24 41 77 115 132 144 145 133 129 127 123 128 147 139 133 131 129 127 122 120 119 115 113 117 114 100 97
6 8 11 23 35 46 60 82 104 111 115 123 124 125 121 125 121 118 117 128 130 128 124 119 118 119 119 121 119 103 108 110
21 30 35 43 53 61 72 91 105 113 116 119 121 120 118 112 109 107 104 110 112 110 109 113 115 113 118 118 112 115 114 102
33 37 48 56 60 70 83 97 105 110 115 119 119 117 115 114 112 111 111 108 108 110 110 108 109 115 113 114 113 108 97 85
43 49 56 60 69 78 89 100 105 111 115 118 119 120 118 116 112 111 111 110 108 104 103 108 107 104 103 100 88 81 82 80
53 61 62 68 71 79 95 105 110 115 119 120 121 117 116 112 111 110 106 104 102 101 100 96 96 99 99 94 91 84 80 75
59 60 66 73 79 90 101 111 114 118 121 121 119 124 122 113 106 102 102 101 100 99 95 92 90 90 86 82 79 78 77 75
68 68 75 83 90 102 109 115 120 122 121 119 113 116 118 101 102 105 102 103 104 101 99 106 101 92 87 83 81 78 75 72
77 79 84 94 104 114 112 115 124 125 124 121 121 114 102 106 103 100 102 100 98 97 97 94 92 91 88 85 81 76 72 70
Wind_Speed_850mb
58 56 56 55 50 46 50 49 41 40 40 40 40 40 42 44 44 43 44 45 45 43 42 42 42 42 40 42 39 36 39 53
63 67 66 60 57 51 39 46 45 44 46 49 49 48 47 47 46 43 42 43 44 43 40 40 41 39 38 41 35 43 46 45
73 81 74 66 58 54 63 70 61 56 54 54 54 53 49 47 46 42 43 44 45 41 36 39 37 39 35 34 35 38 36 25
72 62 64 51 41 48 50 57 59 57 58 62 60 55 51 49 45 46 49 49 44 31 37 34 37 32 33 33 27 28 22 13
81 64 65 75 81 69 65 63 62 64 62 59 53 48 47 50 50 55 60 49 40 30 34 27 31 27 26 20 18 12 11 16
81 92 76 61 62 67 74 71 70 66 61 57 53 49 51 50 42 40 35 33 29 28 26 26 21 19 15 8 8 20 29 34
75 91 90 86 79 77 70 64 58 54 52 47 40 37 34 28 29 28 29 25 23 28 23 19 12 10 8 10 20 32 41 46
71 73 71 69 63 62 63 57 53 49 42 38 32 30 26 34 21 16 16 22 24 21 18 11 10 12 17 18 33 41 48 45
68 66 64 63 58 54 55 53 53 47 38 33 29 22 21 25 20 15 21 14 15 19 17 15 16 19 28 42 55 51 41 49
66 63 62 57 46 39 42 44 39 30 26 24 20 20 15 13 20 15 10 14 23 24 23 28 25 26 35 44 46 45 48 52
60 54 52 42 33 27 27 33 18 19 20 19 18 18 14 15 12 3 20 24 29 36 37 44 50 46 45 48 55 48 46 53
55 47 45 42 28 19 21 23 26 25 23 21 22 23 22 20 14 20 26 31 42 47 56 63 61 59 62 60 53 50 48 47
46 46 39 33 31 33 28 27 29 33 33 35 32 30 28 33 35 34 35 42 48 59 62 64 63 59 54 54 45 33 33 37
44 41 40 38 37 35 35 35 38 40 42 43 42 44 47 50 55 58 50 54 61 63 65 63 58 54 48 39 38 41 43 43
38 37 38 41 41 40 37 39 44 51 54 54 57 59 63 70 81 88 84 69 66 63 58 56 51 45 45 49 49 50 48 45
33 36 37 39 38 40 36 40 47 54 56 58 64 70 81 91 87 77 70 68 68 60 49 49 50 52 53 53 52 44 43 40
35 40 43 41 43 40 36 42 49 55 60 66 78 85 82 74 67 64 58 56 58 58 56 56 52 52 54 52 43 41 42 41
39 43 42 41 44 41 40 49 57 62 73 79 77 79 80 76 67 57 55 55 53 51 50 45 40 40 41 43 42 41 41 39
35 36 38 37 39 41 48 51 66 74 74 74 70 67 76 63 52 51 50 49 48 43 42 42 42 40 42 42 41 40 39 38
39 41 38 36 37 43 50 51 63 68 72 76 79 71 50 48 50 50 50 51 50 49 46 47 46 41 42 42 41 41 40 38
Wind_Direction_850mb
309 310 308 299 294 293 283 272 268 269 271 276 287 291 289 287 290 290 295 296 296 296 293 292 292 294 293 288 287 286 287 296
307 307 305 297 287 285 282 282 273 276 278 280 285 289 290 286 284 284 293 294 294 292 289 290 291 294 290 286 288 289 296 304
303 303 302 298 288 285 278 271 289 286 284 281 284 288 287 283 277 277 286 292 289 282 290 290 292 288 284 284 288 293 298 271
311 304 303 299 289 294 290 287 284 285 285 284 286 283 281 277 271 272 285 287 284 282 286 289 289 285 287 288 290 287 264 253
307 300 295 291 296 294 289 287 285 284 282 281 281 277 274 272 274 279 279 273 272 275 285 283 279 287 290 298 288 247 207 145
294 298 297 288 293 286 285 284 283 279 279 278 274 272 275 277 275 274 270 264 263 282 265 270 276 287 286 277 204 184 159 141
304 302 297 293 288 285 282 280 277 275 275 274 273 269 263 270 266 267 259 265 270 258 262 251 264 264 247 189 180 155 134 113
304 301 297 293 291 287 283 278 277 273 271 267 264 263 264 252 250 251 286 247 246 254 222 206 208 193 177 179 154 137 123 106
314 313 309 307 304 295 284 278 271 267 264 258 252 249 240 250 244 250 265 271 225 187 169 150 157 158 149 148 135 121 120 116
329 324 321 320 316 300 285 278 276 264 241 236 228 220 213 209 223 250 258 207 172 148 143 131 121 128 142 146 131 122 114 112
339 338 336 337 341 328 310 299 236 199 185 184 188 189 183 181 181 136 158 158 143 133 127 119 117 118 118 116 112 112 112 109
348 352 359 6 4 24 41 77 115 132 144 145 133 129 127 123 128 147 139 133 131 129 127 122 120 119 115 113 117 114 100 97
6 8 11 23 35 46 60 82 104 111 115 123 124 125 121 125 121 118 117 128 130 128 124 119 118 119 119 121 119 103 108 110
21 30 35 43 53 61 72 91 105 113 116 119 121 120 118 112 109 107 104 110 112 110 109 113 115 113 118 118 112 115 114 102
33 37 48 56 60 70 83 97 105 110 115 119 119 117 115 114 112 111 111 108 108 110 110 108 109 115 113 114 113 108 97 85
43 49 56 60 69 78 89 100 105 111 115 118 119 120 118 116 112 111 111 110 108 104 103 108 107 104 103 100 88 81 82 80
53 61 62 68 71 79 95 105 110 115 119 120 121 117 116 112 111 110 106 104 102 101 100 96 96 99 99 94 91 84 80 75
59 60 66 73 79 90 101 111 114 118 121 121 119 124 122 113 106 102 102 101 100 99 95 92 90 90 86 82 79 78 77 75
68 68 75 83 90 102 109 115 120 122 121 119 113 116 118 101 102 105 102 103 104 101 99 106 101 92 87 83 81 78 75 72
77 79 84 94 104 114 112 115 124 125 124 121 121 114 102 106 103 100 102 100 98 97 97 94 92 91 88 85 81 76 72 70